This demonstration page uses our WeatherBlox Daily Observations layout. Learn more.

Left ArrowRight Arrow

Hourly Observations for June 30, 2021

Temp ( °F °C ) Dew Point ( °F °C ) Humidity (%) Winds ( mph kmh ) Pressure ( in mb ) Visibility ( mi km ) Precip ( " mm )
12:15 am 00:15 Clear 68 20.1 64 17.9 87 87 N N/A 30.12 1020 10 16 N/A
12:35 am 00:35 Clear 67 19.2 63 17.4 89 89 ESE 5 7 30.13 1020 10 16 N/A
12:55 am 00:55 Clear 66 18.9 63 17.1 89 89 N N/A 30.13 1020 10 16 N/A
1:15 am 01:15 Clear 65 18.4 63 17 92 92 N N/A 30.13 1020 7 11 N/A
1:35 am 01:35 Clear 66 18.7 63 17 90 90 N N/A 30.12 1020 10 16 N/A
1:55 am 01:55 Clear 64 18 62 16.7 92 92 N N/A 30.13 1020 7 11 N/A
2:15 am 02:15 Clear 63 17.2 61 16.3 94 94 N N/A 30.14 1021 7 11 N/A
2:35 am 02:35 Clear with Mist and Fog 63 17 61 16.2 95 95 NE 6 9 30.13 1020 5 8 N/A
2:55 am 02:55 Clear with Mist and Fog 63 17.2 62 16.5 96 96 N N/A 30.13 1020 5 8 N/A
3:15 am 03:15 Clear with Mist and Fog 63 17.1 62 16.5 96 96 N N/A 30.13 1020 4 6 N/A
3:35 am 03:35 Clear with Mist and Fog 62 16.6 61 16 96 96 N N/A 30.12 1020 3 5 N/A
3:55 am 03:55 Clear with Mist and Fog 62 16.8 61 16.2 96 96 N N/A 30.12 1020 4 6 N/A
4:15 am 04:15 Clear with Mist and Fog 61 16.3 60 15.8 97 97 N N/A 30.12 1020 2 3 N/A
4:35 am 04:35 Clear with Mist and Fog 61 16 60 15.5 97 97 ENE 3 6 30.13 1020 3 4 N/A
4:55 am 04:55 Mostly Cloudy with Mist and Fog 61 16 60 15.6 97 97 N N/A 30.13 1020 2 3 N/A
5:15 am 05:15 Clear with Mist and Fog 61 15.9 60 15.5 97 97 N N/A 30.13 1020 2 3 N/A
5:35 am 05:35 Clear with Mist and Fog 60 15.5 59 15 97 97 N N/A 30.13 1020 3 4 N/A
5:55 am 05:55 Clear with Mist and Fog 60 15.3 59 14.9 97 97 N N/A 30.13 1020 3 4 N/A
6:15 am 06:15 Mostly Cloudy with Mist and Fog 59 15.2 59 14.8 97 97 N N/A 30.13 1020 2 2 N/A
6:35 am 06:35 Mostly Cloudy with Mist and Fog 59 15.2 59 14.8 97 97 N N/A 30.13 1020 2 2 N/A
6:55 am 06:55 Mostly Cloudy with Mist and Fog 60 15.6 59 15.2 97 97 N N/A 30.13 1020 2 2 N/A
7:15 am 07:15 Mostly Cloudy with Mist and Fog 62 16.5 61 16 97 97 N N/A 30.12 1020 2 3 N/A
7:35 am 07:35 Sunny with Mist and Fog 64 18 63 17.2 95 95 N N/A 30.11 1020 2 3 N/A
7:55 am 07:55 Sunny with Mist and Fog 66 19 64 17.6 92 92 N N/A 30.10 1019 3 4 N/A
8:15 am 08:15 Sunny with Mist and Fog 67 19.7 64 18 90 90 N N/A 30.09 1019 4 6 N/A
8:35 am 08:35 Sunny with Mist and Fog 69 20.4 65 18.4 88 88 NE 3 6 30.10 1019 4 6 N/A
8:55 am 08:55 Hazy 71 21.4 66 18.8 85 85 ENE 3 6 30.09 1019 4 6 N/A
9:15 am 09:15 Sunny 72 22.2 66 19 82 82 N N/A 30.08 1019 7 11 N/A
9:35 am 09:35 Sunny 73 23 65 18.5 76 76 N N/A 30.09 1019 10 16 N/A
9:55 am 09:55 undefined N/A N/A N/A undefined N/A N/A N/A N/A
10:15 am 10:15 undefined N/A N/A N/A undefined N/A N/A N/A N/A
10:35 am 10:35 undefined N/A N/A N/A undefined N/A N/A N/A N/A
10:55 am 10:55 Sunny 76 24.3 66 18.7 71 71 E 5 7 30.06 1018 N/A N/A
11:10 am 11:10 undefined N/A N/A N/A undefined N/A N/A 10 16 N/A
11:35 am 11:35 undefined 75 24 66 19 74 74 undefined N/A N/A N/A N/A
11:55 am 11:55 undefined N/A N/A N/A E 7 11 N/A N/A N/A
12:15 pm 12:15 Partly Cloudy 77 25.1 65 18.2 66 66 ESE 7 11 30.06 1018 10 16 N/A
12:35 pm 12:35 Mostly Cloudy 78 25.4 65 18.1 64 64 ESE 6 9 30.05 1017 10 16 N/A
12:55 pm 12:55 Partly Cloudy 78 25.6 65 18.2 64 64 ESE 5 7 30.04 1017 10 16 N/A
1:15 pm 13:15 Partly Cloudy 80 26.6 65 18.2 60 60 ESE 8 13 30.04 1017 10 16 N/A
1:35 pm 13:35 Partly Cloudy 79 25.9 64 17.7 61 61 E 7 11 30.04 1017 10 16 N/A
1:55 pm 13:55 Partly Cloudy 81 27.1 60 15.4 49 49 SE 7 11 30.02 1017 10 16 N/A
2:15 pm 14:15 Mostly Cloudy 81 27.1 61 16.3 52 52 SE 6 9 30.01 1016 10 16 N/A
2:35 pm 14:35 Mostly Cloudy 81 27.1 60 15.4 49 49 N N/A 30.01 1016 10 16 N/A
2:55 pm 14:55 Mostly Cloudy 82 27.6 59 15.1 46 46 N N/A 30.00 1016 10 16 N/A
3:15 pm 15:15 Cloudy 81 27.4 59 15 47 47 E 5 7 30.00 1016 10 16 N/A
3:35 pm 15:35 Cloudy 80 26.7 59 15.2 49 49 SSE 5 7 30.01 1016 10 16 N/A
3:55 pm 15:55 Cloudy 80 26.6 61 15.9 52 52 S 3 6 30.00 1016 10 16 N/A
4:15 pm 16:15 Cloudy 80 26.4 62 16.6 55 55 SSW 5 7 30.00 1016 10 16 N/A
4:35 pm 16:35 Cloudy 79 26.1 63 17.4 59 59 SSW 5 7 30.00 1016 10 16 N/A
4:55 pm 16:55 Cloudy 79 26.2 64 17.5 59 59 SSW 5 7 30.00 1016 10 16 N/A
5:15 pm 17:15 Cloudy 80 26.6 63 17.1 56 56 S 5 7 29.99 1015 10 16 N/A
5:35 pm 17:35 Cloudy 79 26.2 62 16.9 57 57 SW 3 6 29.99 1016 10 16 N/A
5:55 pm 17:55 Cloudy 80 26.4 63 17.3 57 57 SSW 6 9 29.99 1015 10 16 N/A
6:15 pm 18:15 Mostly Cloudy 79 26.2 62 16.7 56 56 SSW 5 7 29.98 1015 10 16 N/A
6:35 pm 18:35 Mostly Cloudy 77 24.9 65 18.6 68 68 WSW 3 6 29.99 1016 10 16 N/A
6:55 pm 18:55 Cloudy 76 24.6 66 18.8 70 70 WSW 3 6 29.99 1016 10 16 N/A
7:15 pm 19:15 Cloudy 76 24.5 66 19 72 72 W 3 6 29.99 1016 10 16 N/A
7:35 pm 19:35 Cloudy 76 24.5 66 19 72 72 WNW 3 6 29.99 1016 10 16 N/A
7:55 pm 19:55 Mostly Cloudy 76 24.5 66 18.8 71 71 NW 3 6 29.99 1016 10 16 N/A
8:15 pm 20:15 Partly Cloudy 75 24 66 19 74 74 N N/A 30.00 1016 10 16 N/A
8:35 pm 20:35 Mostly Cloudy 75 23.7 67 19.7 78 78 N N/A 30.00 1016 10 16 N/A
8:55 pm 20:55 Mostly Cloudy 74 23.5 67 19.6 79 79 N N/A 30.00 1016 10 16 N/A
9:15 pm 21:15 Partly Cloudy 73 23 68 20 83 83 NW 3 6 30.01 1016 10 16 N/A
9:35 pm 21:35 Mostly Cloudy 73 22.6 68 20.1 86 86 N N/A 30.02 1017 7 11 N/A
9:55 pm 21:55 Cloudy 72 22.3 68 20 87 87 NNE 5 7 30.02 1017 10 16 N/A
10:15 pm 22:15 Mostly Cloudy 72 22.2 67 19.5 85 85 NNE 3 6 30.02 1017 10 16 N/A
10:35 pm 22:35 Mostly Cloudy with Light Rain 72 22 67 19.5 86 86 NE 5 7 30.02 1017 10 16 N/A
10:55 pm 22:55 Cloudy 71 21.8 67 19.3 86 86 NE 3 6 30.03 1017 10 16 N/A
11:15 pm 23:15 Cloudy 71 21.5 67 19.5 88 88 N N/A 30.03 1017 10 16 N/A
11:35 pm 23:35 Cloudy 71 21.6 67 19.2 86 86 N N/A 30.03 1017 10 16 N/A
11:55 pm 23:55 Mostly Cloudy 70 21 66 19.1 89 89 ENE 3 6 30.03 1017 10 16 N/A

Powered by AerisWeather